AirNav   ATP
 
 363 users online  

0IS9 Bernardin Heliport
West Brooklyn, Illinois, USA

GOING TO WEST BROOKLYN?


FAA INFORMATION EFFECTIVE 21 JUNE 2018

Location

FAA Identifier: 0IS9
Lat/Long: 41-42-30.1150N / 089-12-10.3310W
41-42.501917N / 089-12.172183W
41.7083653 / -89.2028697
(estimated)
Elevation: 830 ft. / 253 m (estimated)
Variation: 00E (1985)
From city: 4 miles NW of WEST BROOKLYN, IL
Time zone: UTC -5 (UTC -6 during Standard Time)
Zip code: 61378

Heliport Operations

Heliport use: Private use. Permission required prior to landing
Activation date: 11/1982
Control tower: no
ARTCC: CHICAGO CENTER
FSS: KANKAKEE FLIGHT SERVICE STATION
Attendance: DAWN-DUSK
Wind indicator: yes
Segmented circle: no

Heliport Communications

WX AWOS-3 at RPJ (12 nm NE): 125.2 (815-562-2955)
WX AWOS-AV at C73 (13 nm NW): 118.575 (815-288-2039)

Nearby radio navigation aids

VOR radial/distance  VOR name  Freq  Var
PLLr134/21.1POLO VOR/DME111.2003E
RFDr179/31.0ROCKFORD VOR/DME110.8001E
BDFr028/37.2BRADFORD VORTAC114.7000E
DPAr252/39.7DUPAGE VOR/DME108.4002E

 
NDB name  Hdg/Dist  Freq  Var  ID
WHITESIDE089/26.125401EBOZ -... --- --..

Heliport Services

Runway Information

Helipad H1

Dimensions: 500 x 500 ft. / 152 x 152 m
Surface: turf
Latitude: 41-42.501917N
Longitude: 089-12.172183W
Elevation: 830.0 ft.
Traffic pattern: leftleft

Heliport Ownership and Management from official FAA records

Ownership: Privately-owned
Owner: MARVIN BERNARDIN
2240 SHAW ROAD
WEST BROOKLYN, IL 61378
Phone 815-628-3431
Manager: MIKE GEHANT
812 14TH AVE.
MENDOTA, IL 61342
Phone 815-503-1853

Instrument Procedures

There are no published instrument procedures at 0IS9.

Some nearby airports with instrument procedures:

KRPJ - Rochelle Municipal Airport-Koritz Field (12 nm NE)
C73 - Dixon Municipal Airport-Charles R. Walgreen Field (13 nm NW)
KSQI - Whiteside County Airport-Jos H Bittorf Field (21 nm W)
KVYS - Illinois Valley Regional Airport-Walter A Duncan Field (22 nm S)
KDKB - De Kalb Taylor Municipal Airport (26 nm NE)
 
Loc | Ops | Rwys | IFR | FBO | Links
Com | Nav | Svcs | Stats | Notes


 
Area around 0IS9 (Bernardin Heliport)
 
Road maps at: MapQuest Bing Google
 
Aerial photo
No photo
 
Sectional chart

 
Airport distance calculator
Flying to Bernardin Heliport? Find the distance to fly.

From to 0IS9

Sunrise and sunset
Times for 16-Jul-2018
 Local
(UTC-5)
 Zulu
(UTC)
Morning civil twilight05:0410:04
Sunrise05:3710:37
Sunset20:2801:28
Evening civil twilight21:0102:01

Current date and time
Zulu (UTC)  16-Jul-2018 06:52:27
Local (UTC-5)  16-Jul-2018 01:52:27
 
METAR
KRPJ 
12nm NE 
160635Z AUTO 00000KT 3SM BR CLR 22/22 A2996 RMK AO2 T02150215
KSQI 
21nm W 
160642Z AUTO 00000KT 2SM BR CLR 23/23 A2996 RMK AO2 VIS 1 1/4V4 PNO $
KVYS 
22nm S 
160635Z AUTO 00000KT 10SM CLR 25/24 A2996 RMK AO2 T02500236
TAF
KRFD 
30nm N 
160539Z 1606/1706 VRB02KT 6SM BR SCT200 FM161200 30004KT P6SM VCTS SCT035CB BKN070 FM161500 33006KT P6SM SCT030 BKN120 FM161900 34011G18KT P6SM FEW035 SCT200 FM170500 31004KT P6SM SKC
NOTAMs
Click for the latest NOTAMs
NOTAMs are issued by the DoD/FAA and will open in a separate window not controlled by AirNav.

 

 
 

Would you like to see your business listed on this page?

 If your business provides an interesting product or service to pilots, flight crews, aircraft, or users of the Bernardin Heliport, you should consider listing it here.  To start the listing process, click on the button below
 
Add a business
 

Other Pages about Bernardin Heliport

Update a link
 
Copyright © AirNav, LLC. All rights reserved. Privacy Policy  Contact